| time (UTC) | temp C | wind direction | speed KPH | gust KPH | rain 1hr cm | rain 24hr cm | rain mn cm | humidity % | barometer mb |
| 20260901154958 | 35 | 24 | 1.6 | 3.2 | 0.00 | 0.00 | 0.00 | 55 | 1019.1 |
| 20260901154457 | 35 | 70 | 1.6 | 1.6 | 0.00 | 0.00 | 0.00 | 58 | 1019.3 |
| 20260901153952 | 34 | 28 | 1.6 | 3.2 | 0.00 | 0.00 | 0.00 | 56 | 1019.1 |
| 20260901153447 | 34 | 347 | 3.2 | 4.8 | 0.00 | 0.00 | 0.00 | 55 | 1019.2 |
| 20260901152947 | 33 | 70 | 0.0 | 0.0 | 0.00 | 0.00 | 0.00 | 55 | 1019.1 |
| 20260901152446 | 33 | 43 | 0.0 | 1.6 | 0.00 | 0.00 | 0.00 | 62 | 1019.4 |
| 20260901151946 | 32 | 51 | 0.0 | 0.0 | 0.00 | 0.00 | 0.00 | 61 | 1019.2 |
| 20260901151441 | 33 | 274 | 3.2 | 4.8 | 0.00 | 0.00 | 0.00 | 59 | 1019.2 |
| 20260901150941 | 32 | 23 | 1.6 | 3.2 | 0.00 | 0.00 | 0.00 | 58 | 1019.3 |
| 20260901150439 | 33 | 28 | 3.2 | 3.2 | 0.00 | 0.00 | 0.00 | 58 | 1019.2 |
| 20260901145937 | 33 | 66 | 3.2 | 3.2 | 0.00 | 0.00 | 0.00 | 58 | 1019.3 |
| 20260901145436 | 32 | 38 | 1.6 | 1.6 | 0.00 | 0.00 | 0.00 | 62 | 1019.2 |
| 20260901144931 | 32 | 46 | 1.6 | 1.6 | 0.00 | 0.00 | 0.00 | 64 | 1019.2 |
| 20260901144426 | 32 | 206 | 3.2 | 4.8 | 0.00 | 0.00 | 0.00 | 62 | 1019.5 |
| 20260901143922 | 32 | 343 | 3.2 | 3.2 | 0.00 | 0.00 | 0.00 | 61 | 1019.3 |
| 20260901143418 | 31 | 83 | 1.6 | 3.2 | 0.00 | 0.00 | 0.00 | 64 | 1019.3 |
| 20260901142915 | 31 | 31 | 3.2 | 3.2 | 0.00 | 0.00 | 0.00 | 65 | 1019.3 |
| 20260901142414 | 31 | 266 | 3.2 | 3.2 | 0.00 | 0.00 | 0.00 | 64 | 1019.4 |
| 20260901141909 | 31 | 100 | 1.6 | 3.2 | 0.00 | 0.00 | 0.00 | 65 | 1019.3 |
| 20260901141404 | 31 | 21 | 1.6 | 1.6 | 0.00 | 0.00 | 0.00 | 65 | 1019.3 |
| 20260901140903 | 30 | 52 | 0.0 | 1.6 | 0.00 | 0.00 | 0.00 | 66 | 1019.5 |
| 20260901140401 | 30 | 67 | 0.0 | 1.6 | 0.00 | 0.00 | 0.00 | 69 | 1019.5 |
| 20260901135856 | 29 | 74 | 0.0 | 1.6 | 0.00 | 0.00 | 0.00 | 70 | 1019.2 |
| 20260901135351 | 29 | 303 | 6.4 | 6.4 | 0.00 | 0.00 | 0.00 | 70 | 1019.3 |
| 20260901134848 | 29 | 52 | 4.8 | 4.8 | 0.00 | 0.00 | 0.00 | 71 | 1019.3 |
| 20260901134343 | 28 | 12 | 3.2 | 3.2 | 0.00 | 0.00 | 0.00 | 72 | 1019.4 |
| 20260901133842 | 28 | 182 | 3.2 | 4.8 | 0.00 | 0.00 | 0.00 | 72 | 1019.3 |
| 20260901133341 | 28 | 84 | 0.0 | 1.6 | 0.00 | 0.00 | 0.00 | 74 | 1019.5 |
| 20260901132841 | 28 | 51 | 0.0 | 0.0 | 0.00 | 0.00 | 0.00 | 75 | 1019.4 |
| 20260901132336 | 27 | 17 | 1.6 | 1.6 | 0.00 | 0.00 | 0.00 | 75 | 1019.4 |
| 20260901131835 | 27 | 70 | 0.0 | 1.6 | 0.00 | 0.00 | 0.00 | 76 | 1019.3 |
| 20260901131334 | 27 | 57 | 1.6 | 1.6 | 0.00 | 0.00 | 0.00 | 77 | 1019.4 |
| 20260901130830 | 27 | 74 | 1.6 | 1.6 | 0.00 | 0.00 | 0.00 | 77 | 1019.3 |
| 20260901130324 | 27 | 66 | 0.0 | 1.6 | 0.00 | 0.00 | 0.00 | 78 | 1019.3 |
| 20260901125822 | 27 | 71 | 0.0 | 0.0 | 0.00 | 0.00 | 0.00 | 79 | 1019.5 |
| 20260901125322 | 26 | 44 | 0.0 | 0.0 | 0.00 | 0.00 | 0.00 | 82 | 1019.3 |
| 20260901124817 | 26 | 57 | 0.0 | 1.6 | 0.00 | 0.00 | 0.00 | 84 | 1019.4 |
| 20260901124312 | 26 | 59 | 0.0 | 0.0 | 0.00 | 0.00 | 0.00 | 84 | 1019.1 |
| 20260901123812 | 25 | 63 | 0.0 | 0.0 | 0.00 | 0.00 | 0.00 | 86 | 1019.2 |
| 20260901123307 | 25 | 59 | 0.0 | 0.0 | 0.00 | 0.00 | 0.00 | 88 | 1019.2 |
| 20260901122805 | 23 | 65 | 0.0 | 0.0 | 0.00 | 0.00 | 0.00 | 92 | 1019.2 |
| 20260901122300 | 23 | 65 | 0.0 | 0.0 | 0.00 | 0.00 | 0.00 | 94 | 1019.3 |
| 20260901121759 | 23 | 55 | 0.0 | 0.0 | 0.00 | 0.00 | 0.00 | 94 | 1019.2 |
| 20260901121255 | 22 | 55 | 0.0 | 0.0 | 0.00 | 0.00 | 0.00 | 95 | 1018.9 |
| 20260901120754 | 22 | 55 | 0.0 | 0.0 | 0.00 | 0.00 | 0.00 | 95 | 1018.8 |
| 20260901120249 | 22 | 55 | 0.0 | 0.0 | 0.00 | 0.00 | 0.00 | 96 | 1019.1 |
| 20260901115745 | 22 | 55 | 0.0 | 0.0 | 0.00 | 0.00 | 0.00 | 96 | 1018.7 |
| 20260901115240 | 22 | 55 | 0.0 | 0.0 | 0.00 | 0.00 | 0.00 | 96 | 1018.8 |
| 20260901114737 | 22 | 55 | 0.0 | 0.0 | 0.00 | 0.00 | 0.00 | 96 | 1018.7 |
| 20260901114232 | 22 | 55 | 0.0 | 0.0 | 0.00 | 0.00 | 0.00 | 96 | 1018.8 |
| 20260901113730 | 22 | 55 | 0.0 | 0.0 | 0.00 | 0.00 | 0.00 | 96 | 1018.6 |
| 20260901113226 | 22 | 55 | 0.0 | 0.0 | 0.00 | 0.00 | 0.00 | 96 | 1018.5 |
| 20260901112725 | 22 | 55 | 0.0 | 0.0 | 0.00 | 0.00 | 0.00 | 96 | 1018.6 |
| 20260901112220 | 22 | 55 | 0.0 | 0.0 | 0.00 | 0.00 | 0.00 | 96 | 1018.4 |
| 20260901111720 | 22 | 55 | 0.0 | 0.0 | 0.00 | 0.00 | 0.00 | 95 | 1018.4 |
| 20260901111214 | 22 | 55 | 0.0 | 0.0 | 0.00 | 0.00 | 0.00 | 95 | 1018.3 |
| 20260901110708 | 22 | 55 | 0.0 | 0.0 | 0.00 | 0.00 | 0.00 | 95 | 1018.2 |
| 20260901110203 | 22 | 55 | 0.0 | 0.0 | 0.00 | 0.00 | 0.00 | 95 | 1018.2 |
| 20260901105700 | 22 | 55 | 0.0 | 0.0 | 0.00 | 0.00 | 0.00 | 95 | 1018.2 |
| 20260901105159 | 22 | 55 | 0.0 | 0.0 | 0.00 | 0.00 | 0.00 | 94 | 1018.3 |
| 20260901104655 | 22 | 55 | 0.0 | 0.0 | 0.00 | 0.00 | 0.00 | 94 | 1018.2 |
| 20260901104150 | 22 | 55 | 0.0 | 0.0 | 0.00 | 0.00 | 0.00 | 94 | 1018.1 |
| 20260901103650 | 22 | 55 | 0.0 | 0.0 | 0.00 | 0.00 | 0.00 | 94 | 1017.9 |
| 20260901103146 | 22 | 55 | 0.0 | 0.0 | 0.00 | 0.00 | 0.00 | 94 | 1018.0 |
| 20260901102645 | 22 | 55 | 0.0 | 0.0 | 0.00 | 0.00 | 0.00 | 95 | 1018.0 |
| 20260901102144 | 22 | 55 | 0.0 | 0.0 | 0.00 | 0.00 | 0.00 | 95 | 1018.0 |
| 20260901101641 | 22 | 55 | 0.0 | 0.0 | 0.00 | 0.00 | 0.00 | 94 | 1018.1 |
| 20260901101140 | 22 | 55 | 0.0 | 0.0 | 0.00 | 0.00 | 0.00 | 94 | 1017.9 |
| 20260901100635 | 22 | 55 | 0.0 | 0.0 | 0.00 | 0.00 | 0.00 | 94 | 1017.8 |
| 20260901100130 | 22 | 55 | 0.0 | 0.0 | 0.00 | 0.00 | 0.00 | 93 | 1018.0 |
| 20260901095628 | 23 | 55 | 0.0 | 0.0 | 0.00 | 0.00 | 0.00 | 93 | 1017.8 |
| 20260901095126 | 23 | 55 | 0.0 | 0.0 | 0.00 | 0.00 | 0.00 | 93 | 1017.8 |
| 20260901094621 | 23 | 55 | 0.0 | 0.0 | 0.00 | 0.00 | 0.00 | 93 | 1017.8 |
| 20260901094120 | 23 | 55 | 0.0 | 0.0 | 0.00 | 0.00 | 0.00 | 93 | 1017.7 |
| 20260901093615 | 23 | 55 | 0.0 | 0.0 | 0.00 | 0.00 | 0.00 | 92 | 1017.8 |
| 20260901093115 | 23 | 55 | 0.0 | 0.0 | 0.00 | 0.00 | 0.00 | 92 | 1017.6 |
| 20260901092611 | 23 | 55 | 0.0 | 0.0 | 0.00 | 0.00 | 0.00 | 92 | 1017.8 |
| 20260901092107 | 23 | 55 | 0.0 | 0.0 | 0.00 | 0.00 | 0.00 | 92 | 1017.7 |
| 20260901091602 | 23 | 55 | 0.0 | 0.0 | 0.00 | 0.00 | 0.00 | 92 | 1017.8 |
| 20260901091057 | 23 | 55 | 0.0 | 0.0 | 0.00 | 0.00 | 0.00 | 93 | 1017.7 |
| 20260901090556 | 23 | 55 | 0.0 | 0.0 | 0.00 | 0.00 | 0.00 | 94 | 1017.7 |
| 20260901090053 | 23 | 55 | 0.0 | 0.0 | 0.00 | 0.00 | 0.00 | 93 | 1017.5 |
| 20260901085548 | 23 | 55 | 0.0 | 0.0 | 0.00 | 0.00 | 0.00 | 93 | 1017.6 |
| 20260901085044 | 23 | 55 | 0.0 | 0.0 | 0.00 | 0.00 | 0.00 | 93 | 1017.6 |
| 20260901084540 | 23 | 55 | 0.0 | 0.0 | 0.00 | 0.00 | 0.00 | 93 | 1017.7 |
| 20260901084036 | 23 | 55 | 0.0 | 0.0 | 0.00 | 0.00 | 0.00 | 93 | 1017.5 |
| 20260901083535 | 23 | 55 | 0.0 | 0.0 | 0.00 | 0.00 | 0.00 | 93 | 1017.6 |
| 20260901083033 | 23 | 55 | 0.0 | 0.0 | 0.00 | 0.00 | 0.00 | 93 | 1017.5 |
| 20260901082530 | 23 | 55 | 0.0 | 0.0 | 0.00 | 0.00 | 0.00 | 93 | 1017.5 |
| 20260901082025 | 23 | 55 | 0.0 | 0.0 | 0.00 | 0.00 | 0.00 | 92 | 1017.5 |
| 20260901081520 | 23 | 55 | 0.0 | 0.0 | 0.00 | 0.00 | 0.00 | 92 | 1017.5 |
| 20260901081015 | 23 | 55 | 0.0 | 0.0 | 0.00 | 0.00 | 0.00 | 92 | 1017.5 |
| 20260901080514 | 23 | 55 | 0.0 | 0.0 | 0.00 | 0.00 | 0.00 | 92 | 1017.2 |
| 20260901080014 | 23 | 55 | 0.0 | 0.0 | 0.00 | 0.00 | 0.00 | 92 | 1017.4 |
| 20260901075509 | 23 | 55 | 0.0 | 0.0 | 0.00 | 0.00 | 0.00 | 92 | 1017.4 |
| 20260901075008 | 23 | 55 | 0.0 | 0.0 | 0.00 | 0.00 | 0.00 | 92 | 1017.4 |
| 20260901074508 | 23 | 55 | 0.0 | 0.0 | 0.00 | 0.00 | 0.00 | 92 | 1017.3 |
| 20260901074004 | 23 | 55 | 0.0 | 0.0 | 0.00 | 0.00 | 0.00 | 92 | 1017.2 |
| 20260901073501 | 23 | 55 | 0.0 | 0.0 | 0.00 | 0.00 | 0.00 | 92 | 1017.3 |
| 20260901073001 | 23 | 55 | 0.0 | 0.0 | 0.00 | 0.00 | 0.00 | 91 | 1017.3 |
| 20260901072456 | 23 | 55 | 0.0 | 0.0 | 0.00 | 0.00 | 0.00 | 91 | 1017.3 |
| 20260901071951 | 23 | 55 | 0.0 | 0.0 | 0.00 | 0.00 | 0.00 | 91 | 1017.1 |
| 20260901071450 | 23 | 55 | 0.0 | 0.0 | 0.00 | 0.00 | 0.00 | 91 | 1017.2 |
| 20260901070949 | 23 | 55 | 0.0 | 0.0 | 0.00 | 0.00 | 0.00 | 91 | 1017.2 |
| 20260901070445 | 23 | 55 | 0.0 | 0.0 | 0.00 | 0.00 | 0.00 | 91 | 1017.2 |
| 20260901065943 | 23 | 55 | 0.0 | 0.0 | 0.00 | 0.00 | 0.00 | 91 | 1017.4 |
| 20260901065440 | 23 | 55 | 0.0 | 0.0 | 0.00 | 0.00 | 0.00 | 91 | 1017.3 |
| 20260901064934 | 23 | 55 | 0.0 | 0.0 | 0.00 | 0.00 | 0.00 | 91 | 1017.3 |
| 20260901064430 | 23 | 55 | 0.0 | 0.0 | 0.00 | 0.00 | 0.00 | 91 | 1017.3 |
| 20260901063922 | 23 | 55 | 0.0 | 0.0 | 0.00 | 0.00 | 0.00 | 91 | 1017.3 |
| 20260901063418 | 23 | 55 | 0.0 | 0.0 | 0.00 | 0.00 | 0.00 | 90 | 1017.2 |
| 20260901062914 | 24 | 55 | 0.0 | 0.0 | 0.00 | 0.00 | 0.00 | 90 | 1017.3 |
| 20260901062409 | 24 | 55 | 0.0 | 0.0 | 0.00 | 0.00 | 0.00 | 89 | 1017.5 |
| 20260901061904 | 24 | 55 | 0.0 | 0.0 | 0.00 | 0.00 | 0.00 | 88 | 1017.4 |
| 20260901061400 | 25 | 55 | 0.0 | 0.0 | 0.00 | 0.00 | 0.00 | 88 | 1017.6 |
| 20260901060855 | 25 | 55 | 0.0 | 0.0 | 0.00 | 0.00 | 0.00 | 88 | 1017.4 |
| 20260901060351 | 25 | 55 | 0.0 | 0.0 | 0.00 | 0.00 | 0.00 | 88 | 1017.2 |
| 20260901055850 | 25 | 55 | 0.0 | 0.0 | 0.00 | 0.00 | 0.00 | 87 | 1017.4 |
| 20260901055347 | 25 | 55 | 0.0 | 0.0 | 0.00 | 0.00 | 0.00 | 87 | 1017.3 |
| 20260901054843 | 25 | 55 | 0.0 | 0.0 | 0.00 | 0.00 | 0.00 | 87 | 1017.5 |
| 20260901054340 | 25 | 55 | 0.0 | 0.0 | 0.00 | 0.00 | 0.00 | 86 | 1017.4 |
| 20260901053836 | 25 | 55 | 0.0 | 0.0 | 0.00 | 0.00 | 0.00 | 86 | 1017.2 |
| 20260901053331 | 25 | 55 | 0.0 | 0.0 | 0.00 | 0.00 | 0.00 | 86 | 1017.3 |
| 20260901052826 | 25 | 55 | 0.0 | 0.0 | 0.00 | 0.00 | 0.00 | 85 | 1017.4 |
| 20260901052322 | 25 | 55 | 0.0 | 0.0 | 0.00 | 0.00 | 0.00 | 85 | 1017.4 |
| 20260901051820 | 25 | 55 | 0.0 | 0.0 | 0.00 | 0.00 | 0.00 | 85 | 1017.4 |
| 20260901051311 | 25 | 55 | 0.0 | 0.0 | 0.00 | 0.00 | 0.00 | 85 | 1017.5 |
| 20260901050805 | 25 | 55 | 0.0 | 0.0 | 0.00 | 0.00 | 0.00 | 85 | 1017.6 |
| 20260901050300 | 25 | 55 | 0.0 | 0.0 | 0.00 | 0.00 | 0.00 | 85 | 1017.5 |
| 20260901045756 | 25 | 53 | 0.0 | 0.0 | 0.00 | 0.00 | 0.00 | 84 | 1017.5 |
| 20260901045250 | 25 | 52 | 0.0 | 0.0 | 0.00 | 0.00 | 0.00 | 84 | 1017.6 |
| 20260901044745 | 25 | 52 | 0.0 | 0.0 | 0.00 | 0.00 | 0.00 | 84 | 1017.5 |
| 20260901044242 | 25 | 52 | 0.0 | 0.0 | 0.00 | 0.00 | 0.00 | 83 | 1017.4 |
| 20260901043738 | 25 | 51 | 0.0 | 0.0 | 0.00 | 0.00 | 0.00 | 84 | 1017.6 |
| 20260901043233 | 25 | 57 | 0.0 | 0.0 | 0.00 | 0.00 | 0.00 | 84 | 1017.5 |
| 20260901042732 | 25 | 54 | 0.0 | 0.0 | 0.00 | 0.00 | 0.00 | 84 | 1017.5 |
| 20260901042232 | 25 | 53 | 0.0 | 0.0 | 0.00 | 0.00 | 0.00 | 86 | 1017.5 |
| 20260901041728 | 25 | 57 | 0.0 | 0.0 | 0.00 | 0.00 | 0.00 | 87 | 1017.5 |
| 20260901041228 | 25 | 57 | 0.0 | 0.0 | 0.00 | 0.00 | 0.00 | 87 | 1017.5 |
| 20260901040723 | 25 | 57 | 0.0 | 0.0 | 0.00 | 0.00 | 0.00 | 86 | 1017.4 |
| 20260901040222 | 25 | 57 | 0.0 | 0.0 | 0.00 | 0.00 | 0.00 | 86 | 1017.6 |
| 20260901035721 | 25 | 57 | 0.0 | 0.0 | 0.00 | 0.00 | 0.00 | 86 | 1017.6 |
| 20260901035220 | 25 | 57 | 0.0 | 0.0 | 0.00 | 0.00 | 0.00 | 85 | 1017.6 |
| 20260901034719 | 25 | 57 | 0.0 | 0.0 | 0.00 | 0.00 | 0.00 | 84 | 1017.5 |
| 20260901034214 | 25 | 57 | 0.0 | 0.0 | 0.00 | 0.00 | 0.00 | 83 | 1017.8 |
| 20260901033714 | 25 | 57 | 0.0 | 0.0 | 0.00 | 0.00 | 0.00 | 82 | 1017.7 |
| 20260901033213 | 26 | 57 | 0.0 | 0.0 | 0.00 | 0.00 | 0.00 | 81 | 1017.7 |
| 20260901032712 | 26 | 57 | 0.0 | 0.0 | 0.00 | 0.00 | 0.00 | 81 | 1017.5 |
| 20260901032213 | 26 | 57 | 0.0 | 0.0 | 0.00 | 0.00 | 0.00 | 80 | 1017.4 |
| 20260901031708 | 26 | 57 | 0.0 | 0.0 | 0.00 | 0.00 | 0.00 | 80 | 1017.4 |
| 20260901031203 | 26 | 57 | 0.0 | 0.0 | 0.00 | 0.00 | 0.00 | 79 | 1017.4 |
| 20260901030659 | 26 | 57 | 0.0 | 0.0 | 0.00 | 0.00 | 0.00 | 78 | 1017.3 |
| 20260901030159 | 26 | 57 | 0.0 | 0.0 | 0.00 | 0.00 | 0.00 | 78 | 1017.3 |
| 20260901025653 | 26 | 50 | 0.0 | 0.0 | 0.00 | 0.00 | 0.00 | 78 | 1017.4 |
| 20260901025148 | 26 | 60 | 0.0 | 0.0 | 0.00 | 0.00 | 0.00 | 78 | 1017.3 |
| 20260901024648 | 26 | 50 | 0.0 | 0.0 | 0.00 | 0.00 | 0.00 | 78 | 1017.3 |
| 20260901024147 | 26 | 50 | 0.0 | 0.0 | 0.00 | 0.00 | 0.00 | 78 | 1017.2 |
| 20260901023646 | 26 | 50 | 0.0 | 0.0 | 0.00 | 0.00 | 0.00 | 78 | 1017.3 |
| 20260901023141 | 26 | 49 | 0.0 | 0.0 | 0.00 | 0.00 | 0.00 | 77 | 1017.1 |
| 20260901022636 | 26 | 49 | 0.0 | 0.0 | 0.00 | 0.00 | 0.00 | 77 | 1017.2 |
| 20260901022131 | 26 | 58 | 0.0 | 0.0 | 0.00 | 0.00 | 0.00 | 77 | 1017.0 |
| 20260901021627 | 26 | 57 | 0.0 | 0.0 | 0.00 | 0.00 | 0.00 | 77 | 1016.8 |
| 20260901021122 | 26 | 58 | 0.0 | 0.0 | 0.00 | 0.00 | 0.00 | 77 | 1016.9 |
| 20260901020618 | 26 | 58 | 0.0 | 0.0 | 0.00 | 0.00 | 0.00 | 77 | 1016.8 |
| 20260901020113 | 26 | 58 | 0.0 | 0.0 | 0.00 | 0.00 | 0.00 | 77 | 1016.6 |
| 20260901015614 | 26 | 58 | 0.0 | 0.0 | 0.00 | 0.00 | 0.00 | 77 | 1016.6 |
| 20260901015113 | 26 | 58 | 0.0 | 0.0 | 0.00 | 0.00 | 0.00 | 76 | 1016.7 |
| 20260901014608 | 26 | 58 | 0.0 | 0.0 | 0.00 | 0.00 | 0.00 | 76 | 1016.6 |
| 20260901014105 | 27 | 58 | 0.0 | 0.0 | 0.00 | 0.00 | 0.00 | 76 | 1016.6 |
| 20260901013600 | 27 | 58 | 0.0 | 0.0 | 0.00 | 0.00 | 0.00 | 75 | 1016.6 |
| 20260901013056 | 27 | 58 | 0.0 | 0.0 | 0.00 | 0.00 | 0.00 | 75 | 1016.1 |
| 20260901012555 | 27 | 58 | 0.0 | 0.0 | 0.00 | 0.00 | 0.00 | 75 | 1016.4 |
| 20260901012051 | 27 | 58 | 0.0 | 0.0 | 0.00 | 0.00 | 0.00 | 74 | 1016.0 |
| 20260901011547 | 27 | 58 | 0.0 | 0.0 | 0.00 | 0.00 | 0.00 | 74 | 1016.3 |
| 20260901011044 | 27 | 58 | 0.0 | 0.0 | 0.00 | 0.00 | 0.00 | 73 | 1015.9 |
| 20260901010540 | 27 | 58 | 0.0 | 0.0 | 0.00 | 0.00 | 0.00 | 72 | 1015.9 |
| 20260901010039 | 27 | 58 | 0.0 | 0.0 | 0.00 | 0.00 | 0.00 | 73 | 1016.1 |
| 20260901005534 | 28 | 58 | 0.0 | 0.0 | 0.00 | 0.00 | 0.00 | 71 | 1015.8 |
| 20260901005030 | 28 | 58 | 0.0 | 0.0 | 0.00 | 0.00 | 0.00 | 70 | 1016.1 |
| 20260901004529 | 28 | 58 | 0.0 | 0.0 | 0.00 | 0.00 | 0.00 | 69 | 1016.0 |
| 20260901004024 | 28 | 58 | 0.0 | 0.0 | 0.00 | 0.00 | 0.00 | 69 | 1016.1 |
| 20260901003519 | 28 | 58 | 0.0 | 0.0 | 0.00 | 0.00 | 0.00 | 67 | 1016.0 |
| 20260901003017 | 29 | 58 | 0.0 | 0.0 | 0.00 | 0.00 | 0.00 | 67 | 1015.9 |
| 20260901002512 | 29 | 58 | 0.0 | 0.0 | 0.00 | 0.00 | 0.00 | 66 | 1015.9 |
| 20260901002007 | 30 | 58 | 0.0 | 0.0 | 0.00 | 0.00 | 0.00 | 65 | 1016.1 |
| 20260901001502 | 30 | 58 | 0.0 | 0.0 | 0.00 | 0.00 | 0.00 | 64 | 1016.3 |
| 20260901000957 | 30 | 57 | 0.0 | 0.0 | 0.00 | 0.00 | 0.00 | 64 | 1016.1 |
| 20260901000458 | 30 | 57 | 0.0 | 0.0 | 0.00 | 0.00 | 0.00 | 62 | 1016.0 |
| 20260831235955 | 31 | 59 | 0.0 | 0.0 | 0.00 | 0.00 | 0.00 | 63 | 1016.0 |
| 20260831235451 | 31 | 58 | 0.0 | 0.0 | 0.00 | 0.00 | 0.00 | 62 | 1016.0 |
| 20260831234946 | 31 | 58 | 0.0 | 0.0 | 0.00 | 0.00 | 0.00 | 60 | 1016.1 |
| 20260831234441 | 31 | 69 | 1.6 | 1.6 | 0.00 | 0.00 | 0.00 | 60 | 1015.8 |
| 20260831233936 | 32 | 69 | 0.0 | 1.6 | 0.00 | 0.00 | 0.00 | 59 | 1015.9 |
| 20260831233431 | 32 | 61 | 0.0 | 0.0 | 0.00 | 0.00 | 0.00 | 56 | 1016.3 |
| 20260831232927 | 32 | 63 | 0.0 | 0.0 | 0.00 | 0.00 | 0.00 | 55 | 1016.1 |
| 20260831232423 | 33 | 70 | 0.0 | 1.6 | 0.00 | 0.00 | 0.00 | 53 | 1016.3 |
| 20260831231918 | 33 | 55 | 0.0 | 1.6 | 0.00 | 0.00 | 0.00 | 53 | 1016.3 |
| 20260831231415 | 33 | 58 | 0.0 | 1.6 | 0.00 | 0.00 | 0.00 | 52 | 1016.3 |
| 20260831230910 | 33 | 100 | 3.2 | 3.2 | 0.00 | 0.00 | 0.00 | 51 | 1016.5 |
| 20260831230405 | 34 | 72 | 0.0 | 1.6 | 0.00 | 0.00 | 0.00 | 52 | 1016.5 |
| 20260831225905 | 35 | 30 | 1.6 | 1.6 | 0.00 | 0.00 | 0.00 | 49 | 1016.4 |
| 20260831225401 | 34 | 55 | 0.0 | 0.0 | 0.00 | 0.00 | 0.00 | 50 | 1016.6 |
| 20260831224855 | 34 | 59 | 0.0 | 0.0 | 0.00 | 0.00 | 0.00 | 50 | 1016.6 |
| 20260831224350 | 35 | 56 | 0.0 | 0.0 | 0.00 | 0.00 | 0.00 | 49 | 1016.5 |
| 20260831223850 | 35 | 66 | 0.0 | 1.6 | 0.00 | 0.00 | 0.00 | 49 | 1016.5 |
| 20260831223346 | 35 | 341 | 3.2 | 3.2 | 0.00 | 0.00 | 0.00 | 46 | 1016.7 |
| 20260831222843 | 35 | 83 | 1.6 | 3.2 | 0.00 | 0.00 | 0.00 | 44 | 1016.8 |
| 20260831222338 | 36 | 294 | 3.2 | 4.8 | 0.00 | 0.00 | 0.00 | 44 | 1016.7 |
| 20260831221833 | 36 | 54 | 0.0 | 0.0 | 0.00 | 0.00 | 0.00 | 45 | 1016.7 |
| 20260831221329 | 36 | 62 | 0.0 | 0.0 | 0.00 | 0.00 | 0.00 | 46 | 1016.9 |
| 20260831220823 | 36 | 331 | 1.6 | 3.2 | 0.00 | 0.00 | 0.00 | 43 | 1016.7 |
| 20260831220318 | 36 | 47 | 1.6 | 1.6 | 0.00 | 0.00 | 0.00 | 42 | 1016.7 |
| 20260831215814 | 37 | 22 | 1.6 | 1.6 | 0.00 | 0.00 | 0.00 | 42 | 1016.7 |
| 20260831215310 | 36 | 227 | 0.0 | 1.6 | 0.00 | 0.00 | 0.00 | 44 | 1016.7 |
| 20260831214806 | 36 | 39 | 1.6 | 1.6 | 0.00 | 0.00 | 0.00 | 41 | 1016.8 |
| 20260831214303 | 36 | 37 | 0.0 | 1.6 | 0.00 | 0.00 | 0.00 | 42 | 1016.8 |
| 20260831213758 | 36 | 62 | 0.0 | 0.0 | 0.00 | 0.00 | 0.00 | 41 | 1017.0 |
| 20260831213255 | 36 | 337 | 0.0 | 1.6 | 0.00 | 0.00 | 0.00 | 42 | 1017.0 |
| 20260831212749 | 36 | 65 | 0.0 | 0.0 | 0.00 | 0.00 | 0.00 | 45 | 1016.8 |
| 20260831212247 | 36 | 69 | 0.0 | 1.6 | 0.00 | 0.00 | 0.00 | 43 | 1017.0 |
| 20260831211744 | 36 | 231 | 1.6 | 3.2 | 0.00 | 0.00 | 0.00 | 42 | 1016.9 |
| 20260831211241 | 36 | 30 | 1.6 | 3.2 | 0.00 | 0.00 | 0.00 | 43 | 1017.0 |
| 20260831210741 | 36 | 62 | 1.6 | 3.2 | 0.00 | 0.00 | 0.00 | 42 | 1017.2 |
| 20260831210237 | 36 | 60 | 0.0 | 0.0 | 0.00 | 0.00 | 0.00 | 45 | 1017.1 |
| 20260831205736 | 36 | 41 | 0.0 | 0.0 | 0.00 | 0.00 | 0.00 | 41 | 1017.1 |
| 20260831205232 | 36 | 50 | 0.0 | 0.0 | 0.00 | 0.00 | 0.00 | 42 | 1017.0 |
| 20260831204726 | 36 | 68 | 0.0 | 1.6 | 0.00 | 0.00 | 0.00 | 43 | 1017.1 |
| 20260831204226 | 36 | 54 | 0.0 | 1.6 | 0.00 | 0.00 | 0.00 | 45 | 1017.0 |
| 20260831203720 | 37 | 46 | 1.6 | 3.2 | 0.00 | 0.00 | 0.00 | 44 | 1016.9 |
| 20260831203220 | 37 | 64 | 1.6 | 1.6 | 0.00 | 0.00 | 0.00 | 49 | 1017.2 |
| 20260831202718 | 36 | 70 | 1.6 | 1.6 | 0.00 | 0.00 | 0.00 | 46 | 1017.3 |
| 20260831202213 | 35 | 25 | 1.6 | 1.6 | 0.00 | 0.00 | 0.00 | 46 | 1017.4 |
| 20260831201713 | 35 | 66 | 1.6 | 1.6 | 0.00 | 0.00 | 0.00 | 47 | 1017.5 |
| 20260831201207 | 34 | 93 | 1.6 | 1.6 | 0.00 | 0.00 | 0.00 | 50 | 1017.5 |
| 20260831200702 | 33 | 356 | 3.2 | 4.8 | 0.00 | 0.00 | 0.00 | 48 | 1017.5 |
| 20260831200156 | 34 | 47 | 1.6 | 1.6 | 0.00 | 0.00 | 0.00 | 47 | 1017.6 |
| 20260831195652 | 35 | 68 | 1.6 | 1.6 | 0.00 | 0.00 | 0.00 | 47 | 1017.6 |
| 20260831195147 | 35 | 355 | 3.2 | 3.2 | 0.00 | 0.00 | 0.00 | 48 | 1017.7 |
| 20260831194642 | 35 | 64 | 0.0 | 1.6 | 0.00 | 0.00 | 0.00 | 47 | 1017.7 |
| 20260831194137 | 36 | 65 | 0.0 | 0.0 | 0.00 | 0.00 | 0.00 | 46 | 1017.7 |
| 20260831193631 | 36 | 54 | 0.0 | 0.0 | 0.00 | 0.00 | 0.00 | 46 | 1017.8 |
| 20260831193127 | 35 | 103 | 1.6 | 3.2 | 0.00 | 0.00 | 0.00 | 51 | 1017.7 |
| 20260831192622 | 35 | 43 | 1.6 | 3.2 | 0.00 | 0.00 | 0.00 | 53 | 1018.0 |
| 20260831192117 | 35 | 354 | 6.4 | 9.7 | 0.00 | 0.00 | 0.00 | 47 | 1018.0 |
| 20260831191608 | 35 | 111 | 1.6 | 1.6 | 0.00 | 0.00 | 0.00 | 46 | 1018.0 |
| 20260831191104 | 35 | 21 | 4.8 | 6.4 | 0.00 | 0.00 | 0.00 | 46 | 1017.9 |
| 20260831190559 | 35 | 62 | 1.6 | 1.6 | 0.00 | 0.00 | 0.00 | 50 | 1018.2 |
| 20260831190057 | 35 | 63 | 3.2 | 4.8 | 0.00 | 0.00 | 0.00 | 48 | 1018.1 |
| 20260831185553 | 35 | 10 | 1.6 | 3.2 | 0.00 | 0.00 | 0.00 | 47 | 1018.3 |
| 20260831185049 | 35 | 21 | 1.6 | 1.6 | 0.00 | 0.00 | 0.00 | 46 | 1018.3 |
| 20260831184548 | 35 | 78 | 1.6 | 1.6 | 0.00 | 0.00 | 0.00 | 47 | 1018.4 |
| 20260831184044 | 35 | 74 | 3.2 | 3.2 | 0.00 | 0.00 | 0.00 | 48 | 1018.4 |
| 20260831183543 | 35 | 223 | 4.8 | 4.8 | 0.00 | 0.00 | 0.00 | 52 | 1018.7 |
| 20260831183042 | 34 | 56 | 0.0 | 0.0 | 0.00 | 0.00 | 0.00 | 49 | 1018.5 |
| 20260831182536 | 34 | 69 | 1.6 | 1.6 | 0.00 | 0.00 | 0.00 | 50 | 1018.7 |
| 20260831182032 | 35 | 226 | 8.0 | 9.7 | 0.00 | 0.00 | 0.00 | 49 | 1018.7 |
| 20260831181532 | 35 | 185 | 4.8 | 4.8 | 0.00 | 0.00 | 0.00 | 49 | 1018.7 |
| 20260831181032 | 34 | 89 | 1.6 | 1.6 | 0.00 | 0.00 | 0.00 | 49 | 1018.7 |
| 20260831180527 | 34 | 290 | 3.2 | 4.8 | 0.00 | 0.00 | 0.00 | 47 | 1018.8 |
| 20260831180022 | 34 | 68 | 1.6 | 1.6 | 0.00 | 0.00 | 0.00 | 50 | 1018.8 |
| 20260831175517 | 34 | 259 | 3.2 | 3.2 | 0.00 | 0.00 | 0.00 | 50 | 1018.9 |
| 20260831175014 | 34 | 45 | 0.0 | 0.0 | 0.00 | 0.00 | 0.00 | 49 | 1019.1 |
| 20260831174509 | 34 | 43 | 3.2 | 6.4 | 0.00 | 0.00 | 0.00 | 48 | 1019.2 |
| 20260831174008 | 34 | 240 | 4.8 | 4.8 | 0.00 | 0.00 | 0.00 | 49 | 1019.2 |
| 20260831173506 | 34 | 102 | 0.0 | 1.6 | 0.00 | 0.00 | 0.00 | 51 | 1019.2 |
| 20260831173003 | 33 | 64 | 0.0 | 0.0 | 0.00 | 0.00 | 0.00 | 55 | 1019.1 |
| 20260831172458 | 33 | 261 | 3.2 | 4.8 | 0.00 | 0.00 | 0.00 | 53 | 1019.0 |
| 20260831171953 | 33 | 345 | 1.6 | 3.2 | 0.00 | 0.00 | 0.00 | 53 | 1019.3 |
| 20260831171448 | 33 | 99 | 1.6 | 1.6 | 0.00 | 0.00 | 0.00 | 52 | 1019.1 |
| 20260831170946 | 33 | 289 | 4.8 | 4.8 | 0.00 | 0.00 | 0.00 | 51 | 1019.3 |
| 20260831170442 | 33 | 299 | 6.4 | 6.4 | 0.00 | 0.00 | 0.00 | 50 | 1019.4 |
| 20260831165938 | 33 | 26 | 3.2 | 4.8 | 0.00 | 0.00 | 0.00 | 52 | 1019.3 |
| 20260831165434 | 33 | 59 | 0.0 | 0.0 | 0.00 | 0.00 | 0.00 | 56 | 1019.5 |
| 20260831164931 | 33 | 265 | 4.8 | 4.8 | 0.00 | 0.00 | 0.00 | 56 | 1019.4 |
| 20260831164427 | 33 | 83 | 1.6 | 3.2 | 0.00 | 0.00 | 0.00 | 54 | 1019.7 |
| 20260831163927 | 33 | 0 | 1.6 | 1.6 | 0.00 | 0.00 | 0.00 | 54 | 1019.8 |
| 20260831163422 | 33 | 82 | 1.6 | 3.2 | 0.00 | 0.00 | 0.00 | 55 | 1019.8 |
| 20260831162921 | 32 | 282 | 6.4 | 9.7 | 0.00 | 0.00 | 0.00 | 56 | 1019.9 |
| 20260831162416 | 32 | 172 | 6.4 | 11.3 | 0.00 | 0.00 | 0.00 | 56 | 1019.6 |
| 20260831161915 | 32 | 197 | 6.4 | 6.4 | 0.00 | 0.00 | 0.00 | 55 | 1019.8 |
| 20260831161412 | 32 | 350 | 8.0 | 11.3 | 0.00 | 0.00 | 0.00 | 58 | 1019.8 |
| 20260831160907 | 32 | 14 | 4.8 | 4.8 | 0.00 | 0.00 | 0.00 | 57 | 1019.8 |
| 20260831160401 | 32 | 195 | 3.2 | 4.8 | 0.00 | 0.00 | 0.00 | 58 | 1019.9 |
| 20260831155857 | 32 | 203 | 4.8 | 4.8 | 0.00 | 0.00 | 0.00 | 58 | 1019.8 |
| 20260831155356 | 32 | 239 | 3.2 | 6.4 | 0.00 | 0.00 | 0.00 | 61 | 1019.8 |